Wind_Speed
32 31 31 29 28 27 27 26 24 24 25 24 24 25 25 24 23 24 25 26 26 26 24 22 22 22 21 19 18 17 17 17 17 17 17 17 17 16 14 15 15 15
34 32 32 30 30 29 29 28 27 25 26 26 25 24 25 25 24 24 26 26 26 26 25 24 23 23 23 21 20 19 18 18 18 17 18 18 18 17 16 16 16 16
36 34 33 32 32 31 30 30 29 28 27 27 26 24 24 25 25 25 26 27 27 26 25 25 24 24 24 22 21 21 20 20 19 18 19 20 19 19 17 17 17 18
39 37 35 33 32 32 32 31 30 29 28 26 27 26 24 23 24 26 26 26 27 26 25 26 25 24 25 24 22 22 21 21 21 20 20 21 21 20 19 18 18 19
41 39 37 35 33 32 33 32 31 30 30 27 27 27 27 25 24 26 27 27 27 26 26 26 25 25 25 25 24 24 22 21 22 21 21 22 23 22 20 19 19 19
41 40 38 36 34 33 33 33 32 31 31 30 28 27 28 28 26 25 27 28 27 27 26 26 26 26 26 26 26 25 24 22 22 23 23 23 23 23 21 21 21 21
39 39 39 36 35 34 33 33 33 33 32 31 30 29 28 29 29 27 26 27 28 27 27 26 27 27 27 27 28 28 27 24 23 24 25 24 24 24 23 22 22 23
37 38 39 38 36 35 35 33 33 34 33 31 30 31 30 30 31 30 28 28 28 29 29 28 28 29 28 28 29 29 29 27 25 25 26 26 25 25 25 24 23 25
36 36 38 38 36 35 35 34 33 33 34 32 31 30 31 31 30 31 31 30 29 29 30 30 30 30 30 29 30 30 30 29 27 27 28 28 27 27 27 26 25 25
36 35 36 36 36 34 34 34 32 32 32 33 32 30 30 31 31 31 32 32 31 31 31 32 31 31 31 31 30 31 31 30 29 28 29 30 29 29 29 28 27 27
36 35 35 35 35 34 33 34 32 31 31 32 33 31 30 31 32 32 32 34 34 33 33 33 33 32 32 32 31 31 32 32 30 30 30 30 31 30 30 30 29 28
36 36 35 35 36 34 33 34 33 31 31 31 33 33 32 31 33 34 34 35 35 35 34 34 34 34 34 34 33 31 32 32 31 31 31 31 32 32 31 31 31 30
36 37 37 36 36 36 35 34 34 33 32 32 32 33 33 32 33 35 36 36 36 37 36 36 36 35 35 35 34 32 32 32 32 31 31 32 32 33 32 32 32 31
36 38 39 39 38 38 37 35 35 35 34 33 33 33 33 33 33 35 36 36 36 37 38 37 37 37 36 36 36 35 33 33 33 32 32 32 33 33 33 33 33 33
37 37 39 40 39 38 39 38 37 36 35 34 34 34 34 33 32 33 34 36 36 36 37 37 37 38 38 38 38 37 36 34 34 34 33 32 33 33 34 34 34 34
36 36 36 38 39 39 39 39 38 36 36 36 35 35 34 34 33 32 32 34 35 36 36 37 37 37 39 40 41 40 38 36 34 34 34 34 33 33 34 35 35 35
36 36 35 37 38 38 38 39 39 37 36 36 36 35 35 35 35 34 33 32 33 34 35 36 37 38 39 42 43 43 41 38 36 35 35 36 35 35 35 36 36 36
35 35 35 35 37 37 37 38 39 38 37 36 37 36 35 35 35 36 35 33 32 33 34 35 37 38 40 42 44 46 45 42 38 36 36 36 37 37 36 36 36 37
34 34 35 34 35 37 37 36 37 38 38 37 36 36 35 35 36 37 36 36 34 34 35 35 35 37 40 42 44 46 47 44 40 38 37 37 37 38 38 37 37 37
34 34 34 34 34 35 36 36 36 37 37 36 34 34 35 35 36 36 37 38 38 36 36 36 36 36 38 41 44 46 47 47 44 40 38 38 38 38 38 39 39 38
34 33 32 33 32 33 34 35 35 35 34 33 32 33 35 36 36 36 37 38 39 37 36 35 35 35 37 40 43 44 47 49 47 42 39 38 38 39 39 40 40 40
32 32 31 31 31 31 33 33 33 33 32 32 32 31 32 34 35 35 35 36 36 37 36 36 35 35 36 39 42 43 45 48 49 45 41 39 38 38 40 40 40 40
31 31 30 30 30 30 31 32 31 31 31 31 31 29 29 30 32 33 34 34 34 36 37 38 36 34 36 38 40 43 45 48 50 47 43 42 41 39 39 40 40 41
30 30 29 29 30 29 28 29 29 29 29 30 30 29 28 28 28 30 32 32 33 35 37 38 37 35 36 38 39 41 45 48 50 47 43 43 42 39 38 38 39 41
29 30 29 28 29 28 26 27 28 27 27 28 28 28 28 27 26 27 29 30 32 33 35 37 37 35 36 38 38 39 43 47 48 46 43 42 40 37 36 37 38 40
28 28 28 27 27 27 26 26 26 26 25 26 26 27 27 28 28 27 27 28 30 31 33 36 38 36 36 37 38 39 41 45 46 44 43 41 37 35 35 36 37 38
Wind_Direction
199 200 200 202 204 205 205 206 205 204 206 207 205 207 208 207 205 203 204 208 211 210 209 209 209 211 211 209 207 205 203 202 202 203 202 203 205 203 204 203 210 226
199 201 202 203 205 207 208 208 208 207 208 209 208 208 209 209 207 206 206 208 210 210 209 209 209 210 209 208 208 206 205 204 203 204 202 203 205 205 209 208 206 218
200 201 201 202 205 207 208 209 209 210 210 210 211 210 209 209 208 208 208 207 207 208 208 208 208 209 207 206 207 207 206 206 205 204 204 203 205 208 210 211 209 211
200 201 201 203 205 207 208 208 209 210 211 211 211 211 209 209 208 208 208 208 206 206 207 207 206 207 207 205 206 206 206 209 207 205 207 205 205 209 211 211 212 209
200 201 202 203 205 207 207 208 209 209 210 210 210 210 211 210 207 206 207 208 207 206 206 207 206 206 206 204 205 207 207 210 210 207 208 208 206 209 211 212 213 211
200 200 202 204 205 206 207 207 209 208 209 210 209 209 210 210 209 206 205 206 206 206 205 206 206 206 206 204 204 206 207 208 210 209 209 209 208 208 209 211 213 212
198 199 200 202 204 206 207 207 208 209 209 209 209 209 209 209 210 208 205 204 204 205 206 206 206 205 205 205 204 205 206 207 209 210 211 210 209 209 209 211 213 212
196 197 199 201 202 205 206 207 208 208 208 208 209 210 209 209 210 209 206 204 203 205 206 206 207 207 205 204 205 205 205 206 207 208 210 210 210 211 210 210 212 212
196 197 198 200 201 203 205 205 207 208 208 208 209 209 210 209 209 208 207 205 205 206 207 208 209 208 207 206 206 207 206 206 207 207 209 210 210 212 212 210 211 211
197 196 197 198 198 201 203 203 205 207 207 209 209 209 209 209 209 208 207 207 206 207 207 209 210 209 208 208 208 209 209 208 207 207 208 210 211 213 213 211 210 210
197 196 196 197 198 200 202 203 204 205 205 207 208 208 207 208 208 207 207 207 207 207 208 209 210 209 208 209 210 211 211 210 210 209 208 210 213 214 215 214 212 211
196 197 198 198 200 202 203 204 204 204 204 204 205 207 207 207 208 207 207 208 208 209 210 210 210 210 209 209 210 211 212 212 212 212 211 211 213 215 216 216 215 213
197 199 200 201 202 204 205 205 205 205 204 204 205 206 207 206 207 208 208 208 209 210 211 211 211 211 211 210 210 211 212 212 212 213 213 212 213 215 216 217 217 216
199 200 201 203 204 205 206 206 207 207 207 206 205 205 207 207 207 208 209 209 210 211 211 212 212 212 211 211 210 211 212 212 212 212 213 213 213 214 216 217 217 217
199 201 202 203 204 205 206 207 208 209 208 207 207 206 207 209 209 208 208 209 211 212 212 213 213 213 212 211 210 211 212 213 213 212 213 214 214 214 215 216 217 217
199 201 202 203 204 205 206 207 208 209 209 209 209 208 207 208 210 209 208 209 211 212 213 213 215 215 214 214 213 212 212 213 214 214 214 214 215 215 215 216 217 218
198 201 202 203 205 206 206 207 207 208 209 210 209 210 208 207 208 210 210 209 210 211 212 213 216 218 217 216 215 214 213 213 215 215 214 215 217 216 216 217 218 219
198 199 201 203 204 206 206 207 207 208 209 210 210 210 209 207 207 210 211 211 210 211 213 215 217 218 218 217 216 216 215 214 215 216 215 216 218 218 218 218 218 219
198 199 201 203 203 205 207 207 207 208 209 209 210 210 209 208 208 209 211 212 212 212 214 216 219 219 218 217 217 217 216 215 216 217 217 218 219 219 220 220 220 220
197 199 201 203 204 204 206 207 208 209 209 210 210 209 209 210 210 210 212 213 215 216 216 218 220 221 219 218 218 217 216 216 217 218 219 220 221 221 221 222 222 221
196 199 201 204 205 204 205 207 208 209 209 209 209 209 210 211 211 211 213 214 216 218 219 220 222 223 222 221 220 218 217 217 218 220 222 223 223 223 223 224 224 224
195 197 200 203 204 205 207 208 208 209 208 208 208 210 212 212 213 214 215 216 217 218 222 225 226 225 225 224 222 220 218 218 219 220 223 225 226 225 224 225 225 225
195 197 199 201 203 205 207 208 208 208 207 207 208 210 212 213 214 217 218 218 219 220 223 227 229 228 227 227 225 221 218 218 218 219 223 227 229 227 226 226 226 226
196 197 198 200 203 205 206 206 206 207 208 208 208 210 214 215 216 219 220 221 222 222 223 227 230 230 230 231 229 224 219 218 218 219 222 228 230 230 229 229 229 228
196 197 198 200 202 203 203 203 204 206 207 208 209 211 216 219 219 220 221 221 223 224 225 227 229 230 231 232 231 227 222 220 218 218 222 227 230 230 232 233 233 233
197 197 197 200 202 203 203 203 203 205 206 206 209 212 216 219 221 221 221 222 223 225 226 227 228 229 231 232 232 231 227 222 218 217 221 226 227 230 232 235 236 237
Height
780 783 785 787 789 791 793 795 797 799 801 803 804 806 808 809 812 814 815 816 817 819 821 823 825 826 828 829 830 832 832 833 834 835 836 837 838 839 840 841 842 843
777 779 781 784 786 788 790 792 794 796 798 800 802 803 805 807 809 811 812 814 815 817 819 821 822 823 825 827 828 829 831 832 833 834 835 836 837 837 838 839 840 841
772 775 777 780 782 784 787 789 791 793 795 797 799 801 803 804 806 808 810 811 812 814 816 818 820 821 823 825 826 827 829 830 831 832 833 834 835 836 837 837 838 839
767 770 773 775 778 781 783 786 788 790 792 794 796 798 800 801 803 805 807 809 810 812 814 816 817 819 820 822 824 825 827 828 829 830 831 831 833 834 835 836 836 837
762 765 768 771 774 777 780 782 784 786 788 791 793 795 797 799 800 802 804 806 807 809 811 813 815 816 818 819 821 822 824 826 827 828 829 829 830 832 832 834 834 835
757 761 764 768 770 773 776 777 780 782 785 787 789 792 794 796 797 798 800 802 805 807 808 810 812 813 815 816 818 819 821 823 824 825 826 827 828 829 830 831 832 833
753 756 760 764 767 769 771 773 776 779 781 784 786 788 790 792 794 795 797 799 802 804 805 807 809 810 812 813 814 816 817 819 821 822 824 825 826 827 827 828 829 830
749 752 756 759 762 765 767 769 772 774 777 780 782 784 786 788 790 792 794 796 798 800 802 804 805 806 808 809 811 812 814 815 817 819 820 822 823 824 825 825 826 827
746 748 751 755 757 760 763 765 768 771 774 776 778 781 783 785 787 789 791 793 794 796 798 800 801 803 805 806 807 809 810 811 813 814 816 818 819 821 821 822 823 824
742 745 748 750 753 756 758 761 764 767 770 772 775 777 779 781 783 785 787 789 791 792 794 796 797 799 801 803 804 805 806 808 809 811 812 814 816 817 818 819 819 820
738 741 743 746 749 751 754 757 760 763 765 768 771 773 775 777 779 781 783 785 786 788 790 791 793 795 797 799 800 802 803 804 806 807 809 810 812 813 815 816 816 817
733 736 739 742 744 747 750 753 756 758 761 763 766 768 770 773 775 777 778 780 782 784 785 787 789 791 792 794 796 798 799 801 802 804 805 806 808 809 811 813 813 814
728 731 734 737 740 742 746 749 751 754 756 758 761 764 766 768 770 772 773 775 777 779 781 783 784 786 788 789 792 794 795 797 798 800 801 802 803 805 807 809 810 811
722 725 728 732 735 738 741 744 746 749 751 754 757 759 761 763 765 767 769 771 773 774 776 778 780 781 783 785 787 789 791 792 793 795 796 797 798 800 802 804 805 806
718 721 723 727 730 733 736 739 742 745 747 750 752 754 757 759 761 763 765 767 768 770 771 773 775 776 777 779 781 783 786 787 789 790 792 793 794 795 796 798 799 800
714 717 720 723 725 728 731 734 737 741 743 746 748 750 752 755 757 760 761 762 764 765 767 768 769 770 772 774 776 778 780 782 784 785 787 788 789 790 791 793 794 795
710 713 716 719 721 724 727 730 733 736 738 741 743 746 748 750 753 755 756 758 759 761 762 763 763 765 766 768 770 772 775 777 779 780 781 783 784 785 786 787 788 789
705 708 711 714 717 720 723 725 729 731 734 736 738 741 744 746 748 750 752 754 755 756 757 757 758 759 760 762 764 767 769 772 774 775 776 777 778 779 780 781 783 784
702 705 707 710 713 716 719 722 724 726 728 731 734 737 740 742 743 745 747 749 750 751 752 752 753 754 755 757 759 761 764 766 768 770 770 771 772 773 775 776 777 779
698 701 704 707 709 712 715 717 720 722 724 728 731 734 736 737 739 740 742 744 744 745 746 747 748 749 750 752 754 756 759 761 763 765 765 765 766 768 770 771 772 773
694 697 701 704 706 709 711 713 716 718 721 725 727 729 730 732 734 736 737 738 740 741 742 742 743 745 746 747 749 751 754 757 759 760 761 761 761 762 764 765 766 768
690 694 697 700 703 706 708 710 713 715 718 721 723 725 727 728 730 731 732 734 736 738 739 738 739 741 742 743 744 747 750 752 754 755 756 756 756 757 758 759 761 763
686 690 693 697 700 702 704 707 710 713 715 718 720 722 723 725 726 727 729 731 732 733 734 733 735 737 738 738 740 742 745 746 748 750 751 751 751 752 753 754 755 757
684 687 691 694 696 699 702 705 707 710 713 715 717 719 720 722 723 724 726 727 728 729 729 730 731 732 734 734 735 737 739 741 743 746 747 746 746 748 750 750 750 751
682 685 688 691 694 697 700 702 705 707 710 712 715 716 718 719 720 721 722 723 724 725 726 726 727 728 730 730 731 734 735 737 740 742 741 740 742 744 746 746 746 746
680 683 685 688 692 695 697 699 702 704 707 709 711 713 715 716 717 717 718 719 721 722 722 722 723 724 726 726 728 730 731 733 736 736 734 735 738 741 742 742 742 743